Location: Newark
(22.3060°N, 114.2134°E)
Time: 08:20:14
(UTC+00:00)

Tiros 1 despin weight - Pass Details

Date: 01 August 2021
Orbit: 593 x 641 km, 48.2° (Epoch: 27 September)

Event Time Altitude Azimuth Distance (km) Brightness Sun altitude
Rises 12:57:12 0° 316° (NW) 2,918 ? -24.4°
Reaches altitude 10° 12:59:32 10° 316° (NW) 2,002 ? -24.8°
Enters shadow 13:03:46 75° 317° (NW) 646 ? -25.6°
